Flag for Pakistan Weather past 2 weeks in Peshawar, Pakistan

Now
50 °F

Broken clouds.


Feels Like: 50 °F
Forecast: 39 / 63 °F
Wind: No wind

Location: Peshawar Airport

Current Time: Dec 22, 2014 at 10:50:06 AM

Latest Report: Dec 22, 2014 at 10:00 AM


Visibility: 0 mi

Pressure: 30.04 "Hg

Humidity: 58%

Dew point: 36 °F

Location of PeshawarLocation

Historic Weather in Peshawar — Graph

°F

Peshawar temperature yesterday

Maximum temperature yesterday: 59 °F (at 1:00 PM)
Minimum temperature yesterday: 41 °F (at 2:00 AM)
Average temperature yesterday: 48 °F

Past Weeks' High & Low Weather Summary

 TemperatureHumidityPressure
High73 °F (Dec 8, 2:00 PM)100% (Dec 8, 12:00 PM)30.27 "Hg (Dec 8, 12:00 PM)
Low39 °F (Dec 10, 5:00 AM)23% (Dec 11, 1:00 PM)29.95 "Hg (Dec 7, 4:00 PM)
Average51 °F64%30.09 "Hg
* Reported Dec 7 9:00 AM — Dec 22 9:00 AM, Peshawar, Weather by CustomWeather, © 2014

Note: Actual official high and low records may vary slightly from our data, if they occured in-between our weather recording intervals... More about our weather records

Advertising

Peshawar weather history for previous 24 hours

 ConditionsComfort  
Time TempWeatherWind HumidityBarometerVisibility
9:00 AM
Dec 22
46 °FBroken clouds.No wind62%30.04 "Hg5 mi
8:00 AM43 °FQuite cool.N/A71%30.04 "HgN/A
5:00 AM39 °FFog.No wind81%30.07 "Hg1 mi
3:00 AM41 °FFog.No wind87%30.07 "Hg1 mi
2:00 AM43 °FFog.No wind87%30.07 "Hg1 mi
1:00 AM45 °FFog.No wind87%30.07 "Hg1 mi
12:00 AM45 °FPassing clouds.No wind87%30.07 "Hg1 mi
11:00 PM
Dec 21
46 °FPassing clouds.No wind82%30.09 "Hg1 mi
10:00 PM48 °FPassing clouds.No wind71%30.07 "Hg1 mi
9:00 PM50 °FPassing clouds.No wind67%30.07 "Hg1 mi
8:00 PM52 °FPassing clouds.No wind72%30.07 "Hg1 mi
7:00 PM54 °FPassing clouds.No wind63%30.04 "Hg1 mi
6:00 PM54 °FPassing clouds.No wind63%30.01 "Hg0 mi
5:00 PM55 °FPartly sunny.No wind55%30.01 "Hg0 mi
4:00 PM59 °FPartly sunny.No wind55%29.98 "Hg1 mi
3:00 PM59 °FPartly sunny.No wind55%30.01 "Hg1 mi
2:00 PM59 °FPartly sunny.No wind55%30.01 "Hg0 mi
1:00 PM59 °FPartly sunny.No wind55%30.04 "Hg1 mi
12:00 PM55 °FPartly sunny.No wind55%30.04 "Hg1 mi
11:00 AM50 °FScattered clouds.No wind62%30.07 "Hg1 mi
10:00 AM46 °FScattered clouds.No wind66%30.07 "Hg1 mi
Weather by CustomWeather, © 2014

See weather overviewHow to use our weather pages